Le nostre stazioni meteo in Italia

Pubblicità
Il mio iltempo24.it
Brescia/Ghedi, Italia (16088): Temperatura & dewpoint: 13.05.2019 21:00:00 - 19.05.2019 21:00:00 (CEST)Brescia/Ghedi, Italia (16088): velocità del vento: 13.05.2019 21:00:00 - 19.05.2019 21:00:00 (CEST)Brescia/Ghedi, Italia (16088): direzione del vento: 13.05.2019 21:00:00 - 19.05.2019 21:00:00 (CEST)Brescia/Ghedi, Italia (16088): reduced air pressure: 13.05.2019 21:00:00 - 19.05.2019 21:00:00 (CEST)Brescia/Ghedi, Italia (16088): visibility: 13.05.2019 21:00:00 - 19.05.2019 21:00:00 (CEST)
Data & Tempo tt [°C] td [°C] ff [km/h] ff [kn] dd ppp [hPa] vv [km]
19.05.2019 21:00:00 - - - - - - -
19.05.2019 20:00:00 15,8 11,2 9 5 SE 1004,2 15
19.05.2019 19:00:00 16,2 10,9 8 4 ESE 1004,2 10
19.05.2019 18:00:00 16,0 10,5 13 7 E 1004,2 10
19.05.2019 17:00:00 15,4 11,6 8 4 NNE 1004,2 10
19.05.2019 16:00:00 14,4 11,2 2 1 SSE 1004,2 8
19.05.2019 15:00:00 13,6 10,8 8 4 NE 1004,3 8
19.05.2019 14:00:00 13,5 10,9 13 7 ENE 1004,4 6
19.05.2019 13:00:00 13,2 10,7 8 4 E 1004,4 5
19.05.2019 12:00:00 13,2 10,6 5 3 ENE 1004,4 3,5
19.05.2019 11:00:00 13,0 10,5 4 2 OSO 1004,4 5
19.05.2019 10:00:00 12,6 10,1 9 5 NNE 1004,4 4,0
19.05.2019 09:00:00 13,0 10,5 5 3 SSE 1004,2 3,5
19.05.2019 08:00:00 13,0 10,2 5 3 NNE 1003,9 6
19.05.2019 07:00:00 12,8 10,0 8 4 NE 1004,3 6
19.05.2019 06:00:00 13,2 10,7 4 2 NNO 1004,5 3,0
19.05.2019 05:00:00 13,2 10,9 4 2 OSO 1004,6 4,0
19.05.2019 04:00:00 13,2 10,9 4 2 NNO 1005,1 4,5
19.05.2019 03:00:00 13,2 11,1 5 3 NO 1005,3 4,5
19.05.2019 02:00:00 13,2 11,1 4 2 NO 1005,8 5
19.05.2019 01:00:00 13,2 11,1 4 2 SE 1006,2 8
19.05.2019 00:00:00 13,2 11,1 2 1 NNO 1006,3 8
18.05.2019 23:00:00 13,4 11,5 8 4 N 1006,4 6
18.05.2019 22:00:00 13,4 11,5 4 2 O 1006,6 8
18.05.2019 21:00:00 14,0 11,5 2 1 ONO 1006,4 8
18.05.2019 20:00:00 13,8 11,5 8 4 NNO 1005,9 10
18.05.2019 19:00:00 14,6 11,0 8 4 NE 1005,9 10
18.05.2019 18:00:00 15,0 11,2 8 4 E 1005,9 10
18.05.2019 17:00:00 14,9 11,5 11 6 E 1005,9 10
18.05.2019 16:00:00 15,0 11,0 15 8 E 1006,1 15
18.05.2019 15:00:00 15,6 9,3 18 10 E 1006,2 15
18.05.2019 14:00:00 16,2 10,1 15 8 ESE 1006,2 15
18.05.2019 13:00:00 16,0 9,4 22 12 E 1006,5 10
18.05.2019 12:00:00 15,4 10,2 15 8 ENE 1006,5 10
18.05.2019 11:00:00 14,6 10,0 16 9 ENE 1006,7 10
18.05.2019 10:00:00 13,8 10,4 15 8 NE 1006,7 10
18.05.2019 09:00:00 13,0 10,7 11 6 NE 1006,6 6
18.05.2019 08:00:00 13,0 10,7 11 6 ESE 1006,5 6
18.05.2019 07:00:00 12,6 10,1 8 4 ENE 1006,1 6
18.05.2019 06:00:00 12,2 10,1 9 5 ENE 1006,7 5
18.05.2019 05:00:00 12,2 10,6 5 3 SSE 1007,7 5
18.05.2019 04:00:00 12,8 11,2 4 2 SSE 1007,9 5
18.05.2019 03:00:00 12,6 11,0 5 3 NE 1008,2 8
18.05.2019 02:00:00 13,0 11,1 8 4 ENE 1008,2 10
18.05.2019 01:00:00 14,4 9,8 8 4 SE 1008,5 10
18.05.2019 00:00:00 14,9 9,9 9 5 SE 1008,4 10
17.05.2019 23:00:00 15,0 8,9 9 5 SE 1008,5 10
17.05.2019 22:00:00 15,8 9,0 11 6 SE 1008,3 10
17.05.2019 21:00:00 16,2 8,9 11 6 ESE 1007,8 10
17.05.2019 20:00:00 17,0 8,4 16 9 ESE 1007,5 15
17.05.2019 19:00:00 17,4 8,8 21 11 ESE 1007,6 15
17.05.2019 18:00:00 18,2 9,3 16 9 ESE 1007,8 15
17.05.2019 17:00:00 18,6 9,4 18 10 E 1008,0 15
17.05.2019 16:00:00 18,8 9,8 21 11 E 1008,2 15
17.05.2019 15:00:00 18,2 9,6 21 11 ESE 1008,6 15
17.05.2019 14:00:00 17,8 9,4 18 10 SE 1009,1 15
17.05.2019 13:00:00 17,0 9,7 22 12 SE 1009,3 15
17.05.2019 12:00:00 16,2 9,2 18 10 SE 1009,3 15
17.05.2019 11:00:00 16,0 9,0 16 9 ESE 1009,2 15
17.05.2019 10:00:00 15,2 7,7 16 9 ESE 1009,5 15
17.05.2019 09:00:00 15,0 8,7 21 11 E 1009,5 10
17.05.2019 08:00:00 13,0 9,3 11 6 E 1009,8 10
17.05.2019 07:00:00 12,0 9,6 11 6 ESE 1009,8 10
17.05.2019 06:00:00 12,0 9,9 5 3 SSE 1009,5 10
17.05.2019 05:00:00 11,9 9,8 8 4 NE 1009,5 10
17.05.2019 04:00:00 12,0 9,7 8 4 ENE 1010,4 10
17.05.2019 03:00:00 13,2 10,5 9 5 ENE 1010,4 10
17.05.2019 02:00:00 13,5 10,5 11 6 ENE 1010,4 10
17.05.2019 01:00:00 13,5 10,1 9 5 ENE 1010,6 10
17.05.2019 00:00:00 13,2 9,3 8 4 E 1010,6 10
16.05.2019 23:00:00 13,3 8,8 5 3 ENE 1010,6 10
16.05.2019 22:00:00 14,1 7,9 5 3 ESE 1010,5 10
16.05.2019 21:00:00 16,0 7,7 8 4 ESE 1009,7 10
16.05.2019 20:00:00 17,0 7,6 9 5 SE 1009,7 20
16.05.2019 19:00:00 17,2 7,5 9 5 SSE 1010,2 20
16.05.2019 18:00:00 17,4 7,5 11 6 SE 1009,8 20
16.05.2019 17:00:00 18,0 7,7 9 5 ESE 1010,2 20
16.05.2019 16:00:00 17,8 7,8 8 4 SSE 1010,5 20
16.05.2019 15:00:00 17,0 7,1 11 6 SE 1010,8 20
16.05.2019 14:00:00 17,2 7,3 5 3 SSO 1011,3 15
16.05.2019 13:00:00 16,4 7,1 8 4 S 1011,8 15
16.05.2019 12:00:00 16,0 7,7 8 4 S 1012,5 10
16.05.2019 11:00:00 14,4 8,1 8 4 SE 1012,7 8
16.05.2019 10:00:00 12,6 8,3 9 5 SE 1013,0 6
16.05.2019 09:00:00 11,0 8,4 2 1 SSE 1012,9 6
16.05.2019 08:00:00 9,5 7,3 2 1 O 1013,1 5
16.05.2019 07:00:00 7,0 5,6 4 2 N 1013,0 5
16.05.2019 06:00:00 6,8 5,3 2 1 SO 1013,0 7
16.05.2019 05:00:00 7,0 5,3 2 1 SSO 1013,1 10
16.05.2019 04:00:00 7,4 5,7 4 2 NNE 1013,6 10
16.05.2019 03:00:00 8,5 6,5 4 2 N 1014,1 10
16.05.2019 02:00:00 8,8 6,6 4 2 N 1014,2 10
16.05.2019 01:00:00 9,5 6,6 8 4 O 1014,8 10
16.05.2019 00:00:00 10,0 6,7 8 4 O 1014,8 10
15.05.2019 23:00:00 11,4 7,3 5 3 ONO 1014,7 10
15.05.2019 22:00:00 11,2 6,1 4 2 O 1014,4 10
15.05.2019 21:00:00 12,4 6,0 4 2 O 1014,2 10
15.05.2019 20:00:00 13,6 6,0 4 2 SO 1013,7 20
15.05.2019 19:00:00 13,9 6,3 4 2 SSO 1013,8 20
15.05.2019 18:00:00 13,9 6,7 5 3 O 1013,8 20
15.05.2019 17:00:00 13,2 5,6 4 2 S 1013,8 20
15.05.2019 16:00:00 11,9 6,8 5 3 SE 1014,4 10
15.05.2019 15:00:00 11,0 6,6 8 4 SE 1014,9 10
15.05.2019 14:00:00 10,4 6,2 15 8 SE 1015,1 20
15.05.2019 13:00:00 10,0 6,0 16 9 SE 1015,1 20
15.05.2019 12:00:00 10,9 5,2 13 7 SE 1014,5 20
15.05.2019 11:00:00 11,1 4,6 9 5 SSE 1014,2 20
15.05.2019 10:00:00 11,5 4,5 4 2 SE 1014,1 20
15.05.2019 09:00:00 10,4 5,4 4 2 N 1014,1 20
15.05.2019 08:00:00 9,2 6,3 5 3 NNO 1014,2 20
15.05.2019 07:00:00 8,0 6,0 8 4 N 1014,3 20
15.05.2019 06:00:00 5,6 4,1 5 3 NNO 1014,7 15
15.05.2019 05:00:00 5,4 3,7 5 3 N 1015,2 15
15.05.2019 04:00:00 6,2 4,5 4 2 NNE 1015,5 15
15.05.2019 03:00:00 6,4 4,6 9 5 NE 1015,8 15
15.05.2019 02:00:00 8,0 5,6 11 6 E 1016,7 15
15.05.2019 01:00:00 8,4 5,9 9 5 NE 1017,4 15
15.05.2019 00:00:00 9,0 5,8 8 4 ENE 1017,8 15
14.05.2019 23:00:00 9,8 5,4 11 6 ENE 1018,0 15
14.05.2019 22:00:00 10,2 4,8 9 5 ENE 1017,9 15
14.05.2019 21:00:00 11,4 4,8 11 6 ENE 1017,8 15
14.05.2019 20:00:00 12,4 5,3 22 12 E 1017,0 15
14.05.2019 19:00:00 13,0 5,4 24 13 E 1016,7 10
14.05.2019 18:00:00 13,8 4,9 26 14 ESE 1016,5 10
14.05.2019 17:00:00 14,8 5,3 24 13 ESE 1016,3 10
14.05.2019 16:00:00 16,0 6,7 29 16 ESE 1016,3 10
14.05.2019 15:00:00 16,0 7,2 18 10 SE 1016,7 10
14.05.2019 14:00:00 16,4 7,6 15 8 SSE 1017,0 15
14.05.2019 13:00:00 16,0 8,2 18 10 SE 1017,3 15
14.05.2019 12:00:00 15,8 9,7 11 6 SSE 1017,5 15
14.05.2019 11:00:00 15,0 9,2 16 9 SE 1017,9 15
14.05.2019 10:00:00 15,2 8,7 15 8 SE 1017,9 20
14.05.2019 09:00:00 15,2 4,6 16 9 E 1017,8 20
14.05.2019 08:00:00 13,2 6,6 18 10 NE 1017,8 20
14.05.2019 07:00:00 10,8 9,2 9 5 E 1017,9 10
14.05.2019 06:00:00 12,0 10,3 4 2 NNE 1017,9 10
14.05.2019 05:00:00 12,8 10,9 2 1 S 1017,9 10
14.05.2019 04:00:00 12,9 9,5 5 3 O 1018,5 10
14.05.2019 03:00:00 13,0 9,3 4 2 O 1018,8 10
14.05.2019 02:00:00 13,0 8,3 2 1 OSO 1019,7 20
14.05.2019 01:00:00 13,8 8,8 2 1 SO 1019,7 20
14.05.2019 00:00:00 14,0 8,2 11 6 E 1019,7 20
13.05.2019 23:00:00 14,8 8,1 11 6 ENE 1019,8 20
13.05.2019 22:00:00 15,0 9,6 16 9 ESE 1020,1 20
13.05.2019 21:00:00 15,4 10,8 4 2 ESE 1019,6 20

tt = Temperatura
td = dewpoint
ff = velocità del vento
dd = direzione del vento
ppp = reduced air pressure
vv = visibility

Stazioni seguenti

WeatherPro
AMSI
MeteoEarth